{"data":{"norad_id":61931,"intl_designator":"2024-207V","name":"STARLINK-32420","alt_names":[],"object_type":"PAYLOAD","status":"ACTIVE","operator":null,"country":"US","launch_date":"2024-11-11","launch_site_code":"AFETR","launch_vehicle":null,"mission":null,"orbit_class":"UNKNOWN","rcs_meters":null,"size_class":null,"mass_kg":null,"dimensions":null,"purposes":["comms"],"wikipedia_slug":null,"has_3d_model":false,"image_url":null,"decayed_at":null,"tle_current":{"epoch":"2026-05-25T04:19:50.975904Z","epoch_age_seconds":59476,"freshness":"FRESH","line1":"1 61931U 24207V   26145.18045111  .00017414  00000+0  64018-3 0  9992","line2":"2 61931  43.0020 209.4791 0001916 278.8140  81.2494 15.27613702 86422","mean_motion":15.27613702,"eccentricity":0.0001916,"inclination_deg":43.002,"raan_deg":209.4791,"arg_perigee_deg":278.814,"mean_anomaly_deg":81.2494,"bstar":0.00064018,"rev_number":8642,"period_min":94.264669013816,"perigee_km":481.63359806189,"apogee_km":484.26276590362,"semimajor_km":6861.0851819828,"source":"CELESTRAK","updated_at":"2026-05-25T13:38:19.484790Z"}}}